Estación municipal de St. Hilari Sacalm (La Selva, Guilleries)

Consulta los datos en tiempo real de la estación municipal de St. Hilari Sacalm





Hora UTC 19:15
Temperatura 12.3 ºC
Humedad 94.6 %
Presión 1011.7 hPa
Pluja 3.1 mm
Velocidad viento 0.0 km/h
Dirección viento NNE
Radiación solar 0.2 W/m²

Webcam

Datos diarios 2026-05-04



Hora UTC (invierno +1h; verano +2h)
Temperatura (ºC) Humedad (%) Presión (hPa) Velocidad viento (km/h) Precipitación (mm) Radiación solar (W/m²)
Hora UTC Aire Humedad Presión Vel. Dir. Vel. Max Dir. Intent. máx 5 min. Rad. Sol.
00:05 10.9 96.9 1014.4 0.0 NNE 0.0 S 0.0 0.1
00:10 10.9 96.9 1014.4 0.0 NNE 0.0 SSW 0.0 0.1
00:15 10.9 96.9 1014.4 0.0 NNE 0.0 SSW 0.0 0.1
00:20 10.8 96.8 1014.3 0.0 NNE 0.0 WSW 0.0 0.1
00:25 10.8 96.9 1014.2 0.0 NNE 0.0 W 0.0 0.1
00:30 10.7 96.9 1014.2 0.0 NNE 0.0 W 0.0 0.1
00:35 10.7 97.0 1014.1 0.0 NNE 0.0 W 0.0 0.1
00:40 10.7 97.0 1014.2 0.0 WSW 3.4 WSW 0.0 0.1
00:45 10.7 97.1 1014.2 0.0 NNE 0.0 WNW 0.0 0.1
00:50 10.7 97.0 1014.2 0.0 NNE 0.0 W 0.0 0.1
00:55 10.5 97.0 1014.1 0.0 NNE 0.0 WNW 0.0 0.1
01:00 10.5 97.0 1014.0 0.0 NNE 0.0 WSW 0.0 0.1
01:05 10.5 97.2 1014.0 0.0 NNE 0.0 S 0.0 0.1
01:10 10.5 97.2 1014.0 0.0 NNE 0.0 WNW 0.0 0.1
01:15 10.5 97.2 1013.9 0.0 NNE 0.0 SW 0.0 0.1
01:20 10.4 97.0 1014.0 0.2 W 6.1 W 0.0 0.1
01:25 10.3 97.0 1013.9 0.7 WNW 8.8 NW 0.0 0.1
01:30 10.1 96.9 1013.8 1.0 WNW 11.5 WNW 0.0 0.1
01:35 10.1 97.1 1013.8 0.2 W 8.8 W 0.0 0.1
01:40 10.1 97.1 1013.9 0.8 W 11.5 W 0.0 0.1
01:45 10.1 97.1 1014.0 0.6 WNW 8.8 W 0.0 0.1
01:50 10.0 97.1 1014.0 2.3 W 11.5 WNW 0.0 0.1
01:55 10.0 97.3 1013.9 2.2 W 14.2 WSW 0.0 0.1
02:00 10.0 97.2 1013.7 0.0 NNE 0.0 SW 0.0 0.1
02:05 10.0 97.2 1013.8 0.1 WSW 6.1 SSW 0.0 0.1
02:10 10.0 97.2 1013.7 0.1 WNW 6.1 W 0.0 0.1
02:15 10.0 97.2 1013.7 0.0 WNW 3.4 WNW 0.0 0.1
02:20 10.2 97.4 1013.7 0.4 WNW 8.8 W 0.0 0.1
02:25 10.3 97.4 1013.7 1.4 NW 11.5 NW 0.0 0.1
02:30 10.4 97.3 1013.7 0.9 NW 14.2 NW 0.0 0.1
02:35 10.4 97.1 1013.6 0.0 WNW 3.4 N 0.0 0.1
02:40 10.4 97.1 1013.6 0.3 NW 8.8 W 0.0 0.1
02:45 10.4 97.1 1013.7 0.7 NW 11.5 WNW 0.0 0.1
02:50 10.5 97.1 1013.7 0.0 NNW 3.4 NNW 0.0 0.1
02:55 10.5 97.1 1013.7 0.0 NNE 0.0 WNW 0.0 0.1
03:00 10.5 97.0 1013.6 0.0 NW 3.4 NNW 0.0 0.1
03:05 10.6 97.0 1013.5 0.0 NNE 0.0 NNW 0.0 0.1
03:10 10.6 97.0 1013.5 1.1 NNW 14.2 WNW 0.0 0.1
03:15 10.7 97.1 1013.5 0.5 NW 8.8 WNW 0.0 0.1
03:20 10.8 97.0 1013.6 1.2 NW 11.5 WNW 0.0 0.1
03:25 10.9 96.8 1013.6 0.3 NW 8.8 NW 0.0 0.1
03:30 10.9 96.6 1013.6 0.1 WNW 6.1 WNW 0.0 0.1
03:35 11.0 96.5 1013.6 0.4 WNW 8.8 WNW 0.0 0.1
03:40 11.0 96.4 1013.6 0.0 NNE 0.0 WNW 0.0 0.1
03:45 11.1 96.3 1013.5 0.1 W 6.1 W 0.0 0.2
03:50 11.1 96.2 1013.5 0.2 W 6.1 WNW 0.0 0.1
03:55 11.1 96.1 1013.4 0.0 NNW 6.1 N 0.0 0.1
04:00 11.1 95.8 1013.3 0.2 NW 8.8 NNW 0.0 0.1
04:05 11.1 95.8 1013.2 0.0 NNE 0.0 W 0.0 0.1
04:10 11.1 95.8 1013.2 0.0 NNE 0.0 SSW 0.0 0.1
04:15 11.1 95.8 1013.2 0.0 NNE 0.0 WSW 0.0 0.1
04:20 11.1 95.8 1013.2 0.0 NNE 0.0 WSW 0.0 0.2
04:25 11.2 95.8 1013.2 0.0 NNE 0.0 SSW 0.0 0.2
04:30 11.2 95.8 1013.1 0.0 NNE 0.0 SW 0.0 0.2
04:35 11.3 95.8 1013.0 0.1 SW 6.1 SW 0.0 0.5
04:40 11.4 95.8 1013.0 0.3 S 8.8 S 0.0 1.1
04:45 11.4 95.4 1013.0 0.0 NNE 0.0 WSW 0.0 2.0
04:50 11.2 95.0 1013.1 0.1 NW 6.1 NW 0.0 3.3
04:55 11.1 94.7 1013.1 0.6 NW 8.8 NNW 0.0 5.1
05:00 11.0 94.7 1013.1 1.3 NW 14.2 NNW 0.0 7.1
05:05 10.9 94.5 1013.1 3.7 NW 14.2 WNW 0.0 8.5
05:10 10.9 94.4 1013.0 2.7 NW 14.2 WSW 0.0 9.7
05:15 10.9 94.3 1013.1 1.6 NW 14.2 WNW 0.0 14.5
05:20 10.8 94.2 1013.1 0.0 NW 3.4 WNW 0.0 24.7
05:25 10.8 94.3 1013.1 2.8 NW 16.9 NW 0.0 33.2
05:30 10.9 94.4 1013.1 3.7 WNW 14.2 WSW 0.0 45.4
05:35 11.0 94.3 1013.0 4.3 WNW 19.6 WNW 0.0 65.5
05:40 11.1 94.0 1013.1 4.9 WNW 14.2 WNW 0.0 130.9
05:45 11.4 93.3 1013.0 4.0 NW 16.9 WNW 0.0 110.7
05:50 11.6 93.0 1013.1 6.6 NW 16.9 W 0.0 181.4
05:55 12.0 92.3 1013.0 2.2 NW 14.2 W 0.0 177.0
06:00 12.3 91.0 1013.0 5.4 NW 19.6 NW 0.0 173.1
06:05 12.5 89.6 1013.0 7.3 NW 22.3 WNW 0.0 189.7
06:10 12.6 88.3 1013.0 10.2 NW 27.7 W 0.0 211.5
06:15 12.7 88.2 1013.0 3.2 NW 16.9 WNW 0.0 228.1
06:20 13.2 87.5 1013.1 5.4 W 25.0 WSW 0.0 241.4
06:25 13.6 85.5 1013.1 6.8 W 25.0 WNW 0.0 260.2
06:30 13.9 83.6 1013.0 8.0 W 27.7 W 0.0 280.6
06:35 14.2 82.2 1013.0 7.9 W 25.0 W 0.0 302.1
06:40 14.4 81.2 1013.0 8.3 WNW 25.0 WNW 0.0 317.4
06:45 14.4 80.7 1013.0 9.0 WNW 22.3 W 0.0 330.1
06:50 14.2 81.3 1013.0 10.9 WNW 30.4 WSW 0.0 345.3
06:55 14.0 81.8 1013.0 11.6 WNW 27.7 WNW 0.0 368.3
07:00 13.9 82.0 1013.0 10.9 WNW 27.7 W 0.0 384.3
07:05 13.9 82.8 1013.1 10.1 WNW 27.7 W 0.0 402.4
07:10 14.1 82.1 1013.1 11.5 WNW 30.4 WNW 0.0 415.6
07:15 14.2 81.7 1013.1 11.2 WNW 25.0 NW 0.0 428.4
07:20 14.3 81.0 1013.1 11.4 W 30.4 WNW 0.0 448.3
07:25 14.3 80.4 1013.2 13.3 WNW 30.4 W 0.0 503.8
07:30 14.1 81.8 1013.3 11.2 WNW 27.7 WNW 0.0 529.4
07:35 14.3 81.4 1013.3 12.9 WNW 27.7 WNW 0.0 538.1
07:40 14.2 80.9 1013.3 14.6 WNW 25.0 NW 0.0 522.5
07:45 14.1 81.0 1013.2 9.9 WNW 25.0 NW 0.0 527.8
07:50 14.5 80.4 1013.3 7.2 NW 25.0 NW 0.0 497.5
07:55 14.9 78.3 1013.3 8.0 NW 22.3 NW 0.0 548.5
08:00 15.4 76.2 1013.2 6.8 NW 16.9 W 0.0 591.9
08:05 15.9 74.7 1013.2 9.1 NW 22.3 NW 0.0 592.4
08:10 16.0 73.6 1013.2 8.2 NW 19.6 NW 0.0 630.7
08:15 16.3 72.3 1013.1 8.7 WNW 19.6 WNW 0.0 622.5
08:20 16.4 72.0 1013.1 10.6 NW 25.0 NW 0.0 573.7
08:25 16.1 71.4 1013.1 8.6 NW 27.7 WNW 0.0 287.0
08:30 15.7 74.3 1013.0 5.1 NW 16.9 NNW 0.0 253.8
08:35 15.7 77.1 1013.0 6.1 NNW 19.6 NNW 0.0 469.6
08:40 16.1 75.8 1013.0 5.0 NNW 19.6 NW 0.0 447.2
08:45 16.4 74.8 1013.0 3.9 NNW 19.6 NNW 0.0 701.8
08:50 17.1 71.9 1013.0 4.1 NNW 14.2 WNW 0.0 710.0
08:55 17.7 70.8 1013.0 2.4 NW 11.5 NNW 0.0 832.0
09:00 18.7 68.8 1013.0 5.2 NNW 14.2 N 0.0 781.3
09:05 19.3 67.0 1013.0 6.4 NNW 14.2 NNW 0.0 778.6
09:10 19.3 63.4 1013.0 2.8 NW 11.5 W 0.0 678.1
09:15 19.5 63.4 1013.0 3.6 W 19.6 W 0.0 839.0
09:20 20.2 59.2 1013.1 6.6 WSW 19.6 SW 0.0 767.8
09:25 20.6 56.8 1013.1 4.6 SW 16.9 SW 0.0 857.0
09:30 20.9 55.9 1013.2 9.8 W 22.3 WSW 0.0 843.0
09:35 20.6 57.2 1013.2 7.8 WNW 16.9 W 0.0 840.0
09:40 20.8 57.3 1013.2 6.6 WSW 16.9 W 0.0 709.0
09:45 20.7 57.4 1013.2 5.1 WNW 14.2 NW 0.0 366.4
09:50 19.1 60.9 1013.2 10.3 NW 19.6 WNW 0.0 419.1
09:55 18.3 64.5 1013.2 8.2 NW 19.6 W 0.0 426.1
10:00 18.2 65.6 1013.2 5.9 WNW 14.2 WNW 0.0 471.2
10:05 18.7 63.6 1013.2 3.2 WNW 11.5 WSW 0.0 437.9
10:10 19.0 63.1 1013.2 3.0 NW 11.5 WNW 0.0 382.1
10:15 18.6 64.6 1013.2 6.2 NNW 14.2 N 0.0 382.9
10:20 18.5 65.2 1013.1 3.5 NNW 11.5 NNW 0.0 364.9
10:25 18.4 65.3 1013.1 4.2 NNW 14.2 NNW 0.0 314.7
10:30 18.3 63.5 1013.0 0.7 NNW 8.8 NW 0.0 340.4
10:35 18.5 63.2 1013.0 1.0 NW 8.8 NNW 0.0 396.5
10:40 18.8 63.7 1013.1 1.9 NNW 8.8 NNW 0.0 322.6
10:45 18.6 61.0 1013.1 0.0 NNE 0.0 NW 0.0 250.0
10:50 18.5 62.4 1013.1 2.4 SE 8.8 ESE 0.0 190.9
10:55 18.6 67.2 1013.1 2.9 E 8.8 E 0.0 236.2
11:00 18.5 69.7 1013.0 3.3 ENE 11.5 ENE 0.0 301.8
11:05 18.5 70.9 1013.0 4.4 E 14.2 ENE 0.0 411.8
11:10 18.6 71.2 1012.9 5.6 E 16.9 SE 0.0 416.7
11:15 18.2 72.6 1012.8 6.3 SE 14.2 ESE 0.0 245.9
11:20 18.0 73.4 1012.8 4.6 SE 16.9 ESE 0.0 175.4
11:25 17.7 73.9 1012.8 5.3 SSE 16.9 S 0.0 192.3
11:30 17.5 76.0 1012.7 2.1 ESE 14.2 ENE 0.0 324.5
11:35 17.5 76.8 1012.7 1.5 ESE 14.2 SE 0.0 366.2
11:40 17.3 77.9 1012.7 2.1 E 14.2 ENE 0.0 294.6
11:45 17.3 79.0 1012.7 6.5 E 16.9 NE 0.0 260.0
11:50 17.1 79.7 1012.7 8.6 ENE 19.6 E 0.0 314.5
11:55 16.8 80.5 1012.7 2.4 E 16.9 ESE 0.0 193.4
12:00 16.7 80.7 1012.6 3.1 SSE 14.2 SE 0.0 238.0
12:05 16.9 79.6 1012.6 1.4 SE 11.5 SE 0.0 242.2
12:10 17.0 78.3 1012.6 0.2 SE 6.1 SE 0.0 192.2
12:15 17.0 77.6 1012.6 2.8 ESE 8.8 SE 0.0 171.1
12:20 16.8 79.5 1012.6 1.3 ENE 11.5 ENE 0.0 170.5
12:25 16.7 81.4 1012.4 0.9 NE 8.8 NE 0.0 237.2
12:30 16.7 83.4 1012.3 0.0 NNE 0.0 ENE 0.0 305.9
12:35 16.6 83.8 1012.4 4.4 E 11.5 ENE 0.0 260.0
12:40 16.6 83.4 1012.3 3.1 ENE 16.9 ENE 0.0 133.6
12:45 16.2 83.6 1012.2 8.1 E 16.9 ESE 0.0 141.4
12:50 15.9 85.6 1012.2 3.7 ENE 14.2 ENE 0.1 187.2
12:55 15.8 87.1 1012.2 0.0 NNE 0.0 ENE 0.0 192.5
13:00 15.8 88.0 1012.1 0.0 NNE 0.0 E 0.0 175.0
13:05 15.7 88.1 1012.1 0.0 NNE 0.0 ENE 0.0 159.1
13:10 15.5 88.2 1012.1 0.2 SE 11.5 SE 0.0 122.6
13:15 15.0 89.1 1012.3 4.5 SSE 14.2 S 0.0 131.3
13:20 14.7 90.2 1012.3 2.4 SSE 11.5 S 0.0 177.4
13:25 14.3 90.7 1012.3 3.7 SE 11.5 SE 0.0 224.6
13:30 14.4 91.7 1012.3 2.0 ESE 11.5 ESE 0.0 169.8
13:35 14.3 91.5 1012.2 5.5 SE 14.2 ESE 0.0 143.0
13:40 14.0 92.1 1012.3 8.3 SE 19.6 SE 0.0 82.7
13:45 13.8 92.8 1012.2 7.7 SE 16.9 SE 0.0 104.0
13:50 13.7 93.4 1012.2 1.1 ESE 8.8 ESE 0.0 95.9
13:55 13.8 93.7 1012.1 0.6 SE 11.5 ESE 0.0 75.6
14:00 13.7 93.9 1012.2 1.2 SSE 11.5 S 0.0 52.1
14:05 13.7 94.1 1012.2 0.0 NNE 0.0 ESE 0.0 37.6
14:10 13.6 94.2 1012.3 3.2 ESE 14.2 ESE 0.0 30.9
14:15 13.4 94.3 1012.2 7.7 SE 19.6 SE 0.0 53.1
14:20 13.3 94.7 1012.1 2.9 SE 16.9 ESE 0.0 101.3
14:25 13.4 94.8 1012.1 1.5 SE 11.5 ESE 0.0 62.0
14:30 13.4 94.9 1012.1 5.6 SSE 16.9 ESE 0.0 35.8
14:35 13.3 95.1 1012.0 1.8 S 11.5 SSE 0.0 34.2
14:40 13.3 95.3 1012.0 1.1 S 8.8 S 0.1 28.8
14:45 13.2 95.2 1012.0 1.0 S 11.5 ESE 0.0 34.3
14:50 13.2 95.3 1012.0 2.3 S 14.2 SSE 0.2 33.1
14:55 13.0 95.1 1012.1 9.2 S 19.6 S 0.0 21.7
15:00 13.0 95.4 1012.1 6.5 S 14.2 S 0.0 14.9
15:05 13.0 95.6 1012.1 1.8 S 11.5 SSE 0.2 23.6
15:10 13.1 95.9 1012.1 2.7 SW 19.6 SSW 0.9 44.7
15:15 13.2 95.8 1012.0 4.6 SW 11.5 WSW 0.6 56.5
15:20 13.1 95.7 1012.0 1.8 SSW 14.2 SW 0.2 57.7
15:25 13.2 95.6 1012.0 0.3 SW 8.8 SW 0.0 41.6
15:30 13.2 95.4 1012.0 0.8 SW 11.5 SW 0.0 43.4
15:35 12.9 94.7 1011.9 4.0 WSW 19.6 WSW 0.0 60.8
15:40 12.6 94.3 1011.7 1.6 W 14.2 WSW 0.0 99.2
15:45 12.7 94.3 1011.8 0.4 WSW 8.8 WNW 0.0 74.5
15:50 12.7 94.0 1011.9 0.1 SW 8.8 SW 0.0 59.9
15:55 12.7 93.7 1012.0 0.2 WSW 6.1 W 0.3 108.5
16:00 12.6 93.2 1011.9 0.1 W 6.1 W 0.3 143.9
16:05 12.7 92.7 1011.9 0.0 SSW 3.4 SSW 0.0 108.6
16:10 12.7 92.2 1011.9 0.0 NNE 0.0 WNW 0.1 82.2
16:15 12.6 91.3 1011.9 0.0 NNE 0.0 WNW 0.0 77.8
16:20 12.8 91.8 1011.9 0.0 NNE 0.0 WNW 0.0 120.3
16:25 13.1 92.6 1011.8 0.0 NNE 0.0 ENE 0.1 171.2
16:30 13.3 92.8 1011.8 0.0 NNE 0.0 E 0.0 179.4
16:35 13.6 92.9 1011.8 0.0 NNE 0.0 ENE 0.0 184.0
16:40 13.7 92.8 1011.8 0.0 NNE 0.0 NNE 0.0 156.1
16:45 13.4 92.0 1011.7 0.0 NNE 0.0 NNE 0.0 117.8
16:50 13.2 91.9 1011.7 0.0 NNE 0.0 NNW 0.0 107.7
16:55 13.4 92.4 1011.6 0.0 NNE 0.0 NNW 0.0 82.2
17:00 13.4 92.4 1011.6 0.0 NNE 0.0 ENE 0.0 90.8
17:05 13.2 92.7 1011.5 0.0 NNE 0.0 NE 0.0 120.5
17:10 13.2 93.1 1011.5 0.0 NNE 0.0 N 0.0 104.9
17:15 13.2 93.2 1011.6 0.0 NNE 0.0 NE 0.0 74.2
17:20 13.1 93.3 1011.5 0.0 NNE 0.0 ESE 0.0 86.0
17:25 13.1 93.3 1011.5 0.0 S 3.4 S 0.0 97.8
17:30 13.1 93.1 1011.5 0.0 NNE 0.0 ESE 0.0 75.5
17:35 13.0 92.9 1011.5 0.0 NNE 0.0 SE 0.0 79.7
17:40 13.1 92.9 1011.4 0.0 NNE 0.0 SSW 0.0 74.5
17:45 13.0 92.6 1011.4 0.0 NNE 0.0 SSE 0.0 58.4
17:50 12.9 92.1 1011.3 0.0 NNE 0.0 S 0.0 53.2
17:55 12.8 92.1 1011.2 0.0 NNE 0.0 S 0.0 60.7
18:00 12.9 92.5 1011.2 0.0 NNE 0.0 S 0.0 67.7
18:05 12.9 92.7 1011.2 0.0 NNE 0.0 W 0.0 59.2
18:10 12.9 92.8 1011.1 0.0 NNE 0.0 NW 0.0 35.9
18:15 12.9 93.0 1011.1 0.0 NNE 0.0 NW 0.0 21.3
18:20 12.8 92.9 1011.1 0.0 NNE 0.0 ESE 0.0 15.2
18:25 12.8 93.1 1011.1 0.0 NNE 0.0 NE 0.0 9.8
18:30 12.7 93.4 1011.2 0.0 NNE 0.0 NNE 0.0 9.9
18:35 12.6 93.9 1011.2 0.0 NNE 0.0 NNE 0.0 10.1
18:40 12.5 94.0 1011.2 0.0 NNE 0.0 NNE 0.0 8.9
18:45 12.4 94.1 1011.3 0.0 NNE 0.0 NW 0.0 4.0
18:50 12.3 94.3 1011.4 0.0 NNE 0.0 WNW 0.0 1.3
18:55 12.3 94.5 1011.5 0.0 NNE 0.0 SW 0.0 1.0
19:00 12.4 94.6 1011.5 0.0 NNE 0.0 SSW 0.0 0.7
19:05 12.4 94.7 1011.5 0.0 NNE 0.0 S 0.0 0.4
19:10 12.4 94.6 1011.5 0.0 NNE 0.0 S 0.0 0.2
19:15 12.3 94.6 1011.7 0.0 NNE 0.0 SSE 0.0 0.2
Máxima 20.9 97.4 1014.4 14.6 WNW 30.4 W 0.9 857.0
Mínima 10.0 55.9 1011.1
Total 3.1